Regional Weather Roundup
Issued by NWS Huntsville, AL

Home | Current Version | Previous Version | Text Only | Print | Product List | Glossary On
Versions: 1 2 3 4 5 6 7 8 9 10 11 12 13 14 15 16 17 18 19 20 21 22 23 24 25 26 27
000
ASUS44 KHUN 240810
RWRHUN

WEATHER ROUNDUP FOR THE TENNESSEE VALLEY
NATIONAL WEATHER SERVICE HUNTSVILLE AL
300 AM CDT WED AUG 24 2016

ALZ001>004-240900-
NORTHWEST ALABAMA

CITY           SKY/WX    TMP DP  RH WIND       PRES   REMARKS
SHOALS AIRPORT CLEAR     72  70  93 CALM      30.18F
SHOALS TVA RES   N/A     72 N/A N/A MISG        N/A
$$

ALZ005>007-016-240900-
NORTH CENTRAL ALABAMA

CITY           SKY/WX    TMP DP  RH WIND       PRES   REMARKS
DECATUR AP     CLEAR     72  71  97 CALM      30.19S
HUNTSVILLE AP  CLEAR     74  68  81 CALM      30.18F
MERIDIANVILLE  CLEAR     70  64  83 CALM      30.20S
REDSTONE ARSN  CLEAR     71  69  94 NE2       30.17F
VINEMONT AP    FAIR      69  68  96 CALM      30.22S
$$

ALZ008>010-240900-
NORTHEAST ALABAMA

CITY           SKY/WX    TMP DP  RH WIND       PRES   REMARKS
ALBERTVILLE    CLEAR     72  72 100 CALM      30.19S
FORT PAYNE     CLEAR     68  64  88 CALM      30.20S
SCOTTSBORO AP  PTCLDY    72  72 100 NE3       30.21R
SCOTTSBORO HCN   N/A     70 N/A N/A MISG        N/A
VALLEY HEAD      N/A     72 N/A N/A MISG        N/A
$$

TNZ076-096-097-240900-
SOUTHEASTERN MIDDLE TENNESSEE

CITY           SKY/WX    TMP DP  RH WIND       PRES   REMARKS
TULLAHOMA      CLEAR     68  66  94 CALM      30.22F
WINCHESTER     CLEAR     68  66  94 CALM      30.21F
$$

...SURROUNDING SITES...

CITY           SKY/WX    TMP DP  RH WIND       PRES   REMARKS
ATLANTA        PTCLDY    77  72  84 CALM      30.22S
ANNISTON       CLEAR     76  70  82 NE5       30.20R
BIRMINGHAM     CLEAR     76  71  85 CALM      30.20S
CHATTANOOGA    CLEAR     73  68  84 CALM      30.21S
DALTON         CLEAR     70  70 100 CALM      30.22R
GADSDEN        CLEAR     72  71  97 CALM      30.19S
GOLDEN TRNGL   CLEAR     73  70  88 CALM      30.14F
HALEYVILLE     FAIR      71  70  96 CALM      30.21F
JACKSON TN     CLEAR     75  73  93 S3        30.15S
MEMPHIS        CLEAR     80  73  79 S8        30.13S
NASHVILLE      CLEAR     72  69  90 CALM      30.18F
OXFORD MS      FAIR      75  72  88 S6        30.17S
ROME           CLEAR     73  69  87 CALM      30.20S
SAVANNAH       CLEAR     73  72  94 S5        30.16S
TUPELO         CLEAR     76  72  87 CALM      30.16S
TUSCALOOSA     CLEAR     76  76 100 CALM      30.16S
$$

...GULF COAST WEATHER...

CITY           SKY/WX    TMP DP  RH WIND       PRES   REMARKS
GULFPORT       CLOUDY    78  76  93 CALM      30.11F
PASCAGOULA     PTCLDY    78  78 100 CALM      30.11F
MOBILE         PTCLDY    78  76  93 NW5       30.13F
GULF SHORES    CLOUDY    79  79 100 NW3       30.11S
PENSACOLA      CLOUDY    80  78  94 N3        30.11S
DESTIN         CLOUDY    81  76  84 E5        30.12F
PANAMA CITY    PTCLDY    76  74  92 E5        30.12F
APPALACHICOLA  CLOUDY    76  76 100 NE8       30.13F
$$





USA.gov is the U.S. government's official web portal to all federal, state and local government web resources and services.